DW7098 Weather Reports


Display with metric or nautical units.
time (UTC)temp
F
wind
direction
speed
MPH
gust
MPH
rain 1hr
in
rain 24hr
in
rain mn
in
humidity
%
barometer
mb
20260510000107 68 236 1.0 6.0 0.00 0.00 0.00
20260509233046 71 93 2.0 5.0 0.00 0.00 0.00
20260509230054 71 271 0.0 3.0 0.00 0.00 0.00
20260509223053 71 275 0.0 3.0 0.00 0.00 0.00
20260509220100 70 64 1.0 3.0 0.00 0.00 0.00
20260509213039 70 308 1.0 3.0 0.00 0.00 0.00
20260509210106 70 146 0.0 5.0 0.00 0.00 0.00
20260509203050 67 64 3.0 6.0 0.00 0.00 0.00
20260509200103 66 81 1.0 7.0 0.00 0.00 0.00
20260509193045 66 71 0.0 6.0 0.00 0.00 0.00
20260509180105 62 79 3.0 5.0 0.00 0.00 0.00
20260509173044 61 172 2.0 4.0 0.00 0.00 0.00
20260509160104 56 68 0.0 5.0 0.00 0.00 0.00
20260509150058 53 65 1.0 4.0 0.00 0.00 0.00
20260509133047 52 73 1.0 3.0 0.00 0.00 0.00
20260509130059 52 84 0.0 1.0 0.00 0.00 0.00
20260509123037 52 97 1.0 2.0 0.00 0.00 0.00
20260509110104 52 86 0.0 1.0 0.00 0.00 0.00
20260509103044 52 54 0.0 3.0 0.00 0.00 0.00
20260509100054 52 75 1.0 2.0 0.00 0.00 0.00
20260509093039 52 65 0.0 1.0 0.00 0.00 0.00
20260509090104 52 65 0.0 1.0 0.00 0.00 0.00
20260509083020 53 65 0.0 1.0 0.00 0.00 0.00
20260509080103 53 69 0.0 2.0 0.00 0.00 0.00
20260509073043 53 53 0.0 2.0 0.00 0.00 0.00
20260509070112 53 62 0.0 2.0 0.00 0.00 0.00
20260509063049 53 71 0.0 2.0 0.00 0.00 0.00
20260509060100 54 229 0.0 1.0 0.00 0.00 0.00
20260509053040 53 229 0.0 1.0 0.00 0.00 0.00
20260509050052 53 229 0.0 1.0 0.00 0.00 0.00
20260509043052 54 229 0.0 0.0 0.00 0.00 0.00
20260509040101 54 249 0.0 1.0 0.00 0.00 0.00
20260509033037 55 224 0.0 0.0 0.00 0.00 0.00
20260509030109 55 254 1.0 6.0 0.00 0.00 0.00
20260509023027 56 253 1.0 4.0 0.00 0.00 0.00
20260509020050 56 260 0.0 2.0 0.00 0.00 0.00
20260509013032 57 141 0.0 2.0 0.00 0.00 0.00
20260509010104 57 221 0.0 2.0 0.00 0.00 0.00